Regional Weather Roundup
Issued by NWS Sterling, VA

Current Version | Previous Version | Text Only | Print | Product List | Glossary On
Versions: 1 2 3 4 5 6 7 8 9 10 11 12 13 14 15 16 17 18 19 20 21 22 23 24 25 26 27 28 29 30 31 32 33 34 35 36 37 38 39 40 41 42 43 44 45 46 47 48 49 50
000
ASUS41 KLWX 182110
RWRLWX

REGIONAL WEATHER ROUNDUP
NATIONAL WEATHER SERVICE BALTIMORE MD/WASHINGTON DC
500 PM EDT THU SEP 18 2014

Note: "FAIR" indicates few or no clouds below 12,000 feet
with no significant weather and/or obstructions to visibility.
 TC=TEMPERATURE CELSIUS

 * =Non NWS site. Station does not report precipitation (e.g. rain,
    snow, etc.), thunder, or fog.

DCZ001-MDZ009-015-VAZ040>042-051-053>054-182200-
WASHINGTON METRO

CITY           SKY/WX    TMP DP  RH WIND       PRES   REMARKS
WASHINGTON NAT MOSUNNY   79  52  38 N10       30.00S
DULLES         MOSUNNY   76  47  35 NW6       30.00S
ANDREWS AFB    PTSUNNY   75  61  61 E7        29.99S
QUANTICO       PTSUNNY   73  62  68 SW10      30.01S
COLLEGE PARK*  PTSUNNY   73  61  64 NE9       30.00R
LEESBURG*      MOSUNNY   77  50  38 N9        30.01S
GAITHERSBURG*  SUNNY     73  54  49 CALM      30.05R

$$

MDZ006>007-011-014-182200-
BALTIMORE METRO

CITY           SKY/WX    TMP DP  RH WIND       PRES   REMARKS
BWI AIRPORT    MOSUNNY   71  60  68 E10       30.01S
MD SCIENCE CTR   N/A     72  57  59 MISG      30.01S
MARTIN STATE   MOSUNNY   72  63  73 E6        30.03S
ANNAPOLIS      MOSUNNY   70  63  78 CALM      30.01S
FORT MEADE*    PTSUNNY   68  61  77 E7        30.03S

$$

MDZ012-015-019>023-182200-
MARYLAND EASTERN SHORE

CITY           SKY/WX    TMP DP  RH WIND       PRES   REMARKS
OCEAN CITY     SUNNY     72  52  49 SE7       30.02R
SALISBURY      CLOUDY    75  53  46 SE8       30.01R
BAY BRIDGE AP*   N/A     68  59  73 CALM      30.01S
CAMBRIDGE*     MOSUNNY   73  55  53 CALM      30.00S
EASTON*        MOSUNNY   73  59  60 CALM      30.05R

$$

MDZ017>025-182200-
SOUTHERN MARYLAND

CITY           SKY/WX    TMP DP  RH WIND       PRES   REMARKS
PATUXENT RIVER PTSUNNY   73  55  53 SE9       30.00F
ST INIGOES     CLOUDY    71  53  52 SE3       30.00S
LEONARDTOWN*   MOSUNNY   70  55  60 S5        30.02S

$$

MDZ003>005-182200-
NORTH CENTRAL MARYLAND

CITY           SKY/WX    TMP DP  RH WIND       PRES   REMARKS
FREDERICK*     MOSUNNY   77  52  41 NE5       30.03S
HAGERSTOWN APT MOSUNNY   72  44  36 N5        30.02S
WESTMINSTER*   SUNNY     73  46  38 NW3       30.02S

$$

MDZ501>502-182200-
WESTERN MARYLAND

CITY           SKY/WX    TMP DP  RH WIND       PRES   REMARKS
OAKLAND*       SUNNY     61  41  48 NW7       30.10S
CUMBERLAND*    NOT AVBL

$$

VAZ025>031-182200-
SHENANDOAH VALLEY

CITY           SKY/WX    TMP DP  RH WIND       PRES   REMARKS
WINCHESTER*    MOSUNNY   75  43  31 N6        30.01S
STAUNTON*      CLOUDY    74  50  43 E3        30.03S

$$

WVZ021-048>050-054>055-182200-
EASTERN WEST VIRGINIA PANHANDLE

CITY           SKY/WX    TMP DP  RH WIND       PRES   REMARKS
MARTINSBURG    SUNNY     76  44  32 N5        30.02S
PETERSBURG*    CLOUDY    73  45  37 NE5       30.03R

$$

VAZ036>039-050-182200-
CENTRAL FOOTHILLS

CITY           SKY/WX    TMP DP  RH WIND       PRES   REMARKS
CHARLOTTESVILL CLOUDY    72  60  66 SE3       30.01S
ORANGE*        CLOUDY    72  61  68 SE6       30.02S

$$

VAZ055>057-182200-
NORTH AND CENTRAL PIEDMONT

CITY           SKY/WX    TMP DP  RH WIND       PRES   REMARKS
FREDERICKSBRG* CLOUDY    73  63  72 SE3       30.00S
STAFFORD*      PTSUNNY   70  64  80 SE3       30.05R

$$

NCZ024-NYZ072-PAZ021-071-VAZ022-071-182200-
OTHER REGIONAL OBSERVATIONS

CITY           SKY/WX    TMP DP  RH WIND       PRES   REMARKS
NEW YORK CITY  MOSUNNY   74  46  36 CALM      30.01S
PHILADELPHIA   MOSUNNY   72  54  53 W10       30.01F
PITTSBURGH     MOSUNNY   69  46  43 N7        30.08S
ROANOKE        PTSUNNY   73  57  57 SE7       30.02S
RICHMOND       CLOUDY    70  63  78 E5        30.00S
RALEIGH        PTSUNNY   78  59  51 E7        29.98S

$$

ANZ530>537-182200-
MARINE OBSERVATIONS

STATION/POSITION TIME  TEMP    WIND        PRES
                       AIR SEA DIR/SP/G
                 (UTC) (F)     (DEG/KT/KT) (MB)
THOMAS PT LIGHT  2100   69 75  130/  5/  6 1017.2R
BALT KEY BRIDGE  2100   70     100/  6/  8 1015.9S
COVE POINT       2100   71     190/ 10/ 12 1016.0R
LEWISETTA        2100   71 75  180/  4/  5 1015.9R
SOLOMONS ISLAND  2100      76                N/A
PINEY POINT      2100          170/  9/ 11   N/A

$$




USA.gov is the U.S. government's official web portal to all federal, state and local government web resources and services.